Weather History for Buckland, AK

Change the Weather History Date:

Monday, September 24, 2012

  Actual Average (PASK) Record (PASK)
Temperature  
Mean Temperature 32 °F -  
Max Temperature 37 °F 40 °F 53 °F (2002)
Min Temperature 26 °F 30 °F 23 °F (1996)
Degree Days  
Heating Degree Days 32    
Moisture  
Dew Point 24 °F    
Average Humidity 71    
Maximum Humidity 87    
Minimum Humidity 48    
Precipitation  
Precipitation 0.00 in - - ()
Sea Level Pressure  
Sea Level Pressure 29.90 in    
Wind  
Wind Speed 6 mph (SSW)    
Max Wind Speed 13 mph    
Max Gust Speed 18 mph    
Visibility 9 miles    
Events      
Averages and records for this station are not official NWS values.
T = Trace of Precipitation, MM = Missing Value Source: NWS Daily Summary

Daily Weather History Graph

Daily Weather History Graph

Search for Another Location

Airport:

Trip Planner

Search our weather history database for the weather conditions in past years. The results will help you decide how hot, cold, wet, or windy it might be!

Date:

Astronomy

Sep. 24, 2012 Rise Set
Actual Time 8:35 AM AKDT 8:35 PM AKDT
Civil Twilight 7:44 AM AKDT 9:26 PM AKDT
Nautical Twilight 6:41 AM AKDT 10:28 PM AKDT
Astronomical Twilight 5:29 AM AKDT 11:39 PM AKDT
Moon 7:12 PM AKDT (9/24) 12:57 AM AKDT (9/24)
Length of Visible Light 13h 42m
Length of Day
11h 59m
Waxing Gibbous, 72% of the Moon is Illuminated
Sep 24
Waxing Gibbous
Sep 29
Full
Oct 7
Last Quarter
Oct 15
New
Oct 21
First Quarter

Hourly Weather History & Observations

Time (AKDT) Temp. Windchill Dew Point Humidity Pressure Visibility Wind Dir Wind Speed Gust Speed Precip Events Conditions
12:16 AM 33.8 °F 27.0 °F 28.4 °F 81% 29.75 in 10.0 mi SSW 8.1 mph - N/A   Scattered Clouds
12:36 AM 33.8 °F 28.6 °F 28.4 °F 81% 29.75 in 10.0 mi SSW 5.8 mph - N/A   Mostly Cloudy
12:56 AM 33.8 °F 25.8 °F 28.4 °F 81% 29.77 in 10.0 mi SSW 10.4 mph 18.4 mph N/A   Overcast
1:16 AM 33.8 °F 29.6 °F 28.4 °F 81% 29.77 in 10.0 mi South 4.6 mph - N/A   Overcast
1:36 AM 33.8 °F 30.8 °F 28.4 °F 81% 29.78 in 10.0 mi SSE 3.5 mph - N/A   Overcast
1:56 AM 33.8 °F 28.6 °F 28.4 °F 81% 29.79 in 10.0 mi SSW 5.8 mph - N/A   Mostly Cloudy
2:16 AM 32.0 °F 27.5 °F 28.4 °F 87% 29.80 in 10.0 mi SSW 4.6 mph - N/A   Scattered Clouds
2:36 AM 33.8 °F 29.6 °F 28.4 °F 81% 29.80 in 10.0 mi SW 4.6 mph - N/A   Mostly Cloudy
2:56 AM 33.8 °F 28.6 °F 28.4 °F 81% 29.81 in 10.0 mi WSW 5.8 mph - N/A   Mostly Cloudy
3:16 AM 32.0 °F 24.2 °F 28.4 °F 87% 29.82 in 10.0 mi SW 9.2 mph - N/A   Partly Cloudy
3:36 AM 32.0 °F 27.5 °F 28.4 °F 87% 29.83 in 10.0 mi SW 4.6 mph - N/A   Partly Cloudy
3:56 AM 32.0 °F 23.0 °F 28.4 °F 87% 29.83 in 10.0 mi WSW 11.5 mph - N/A   Mostly Cloudy
4:16 AM 32.0 °F 22.5 °F 28.4 °F 87% 29.84 in 10.0 mi SW 12.7 mph - N/A   Scattered Clouds
4:36 AM 30.2 °F 22.6 °F 26.6 °F 86% 29.85 in 10.0 mi SW 8.1 mph - N/A   Mostly Cloudy
4:56 AM 30.2 °F 21.9 °F 26.6 °F 86% 29.85 in 10.0 mi SW 9.2 mph - N/A   Overcast
5:16 AM 30.2 °F 20.8 °F 26.6 °F 86% 29.86 in 10.0 mi SSW 11.5 mph - N/A   Mostly Cloudy
5:36 AM 30.2 °F 21.9 °F 26.6 °F 86% 29.86 in 10.0 mi SW 9.2 mph - N/A   Partly Cloudy
5:56 AM 30.2 °F 22.6 °F 26.6 °F 86% 29.86 in 10.0 mi SW 8.1 mph - N/A   Mostly Cloudy
6:16 AM 30.2 °F 24.3 °F 26.6 °F 86% 29.87 in 10.0 mi SSW 5.8 mph - N/A   Overcast
6:36 AM 30.2 °F 25.4 °F 26.6 °F 86% 29.88 in 10.0 mi SSW 4.6 mph - N/A   Mostly Cloudy
6:56 AM 30.2 °F 24.3 °F 26.6 °F 86% 29.88 in 10.0 mi WSW 5.8 mph - N/A   Overcast
7:16 AM 30.2 °F - 26.6 °F 86% 29.88 in 10.0 mi Calm Calm - N/A   Overcast
7:36 AM 30.2 °F 24.3 °F 26.6 °F 86% 29.89 in 10.0 mi South 5.8 mph - N/A   Overcast
7:56 AM 30.2 °F 25.4 °F 26.6 °F 86% 29.89 in 10.0 mi SE 4.6 mph - N/A   Overcast
8:16 AM 32.0 °F 25.6 °F 26.6 °F 80% 29.89 in 10.0 mi SSE 6.9 mph - N/A   Overcast
8:36 AM 33.8 °F 30.8 °F 26.6 °F 75% 29.90 in 10.0 mi South 3.5 mph - N/A   Overcast
8:56 AM 33.8 °F 27.7 °F 24.8 °F 70% 29.90 in 10.0 mi SSE 6.9 mph - N/A   Overcast
9:16 AM 33.8 °F 28.6 °F 24.8 °F 70% 29.90 in 10.0 mi South 5.8 mph - N/A   Overcast
9:36 AM 33.8 °F 27.7 °F 23.0 °F 65% 29.91 in 10.0 mi SSE 6.9 mph - N/A   Overcast
9:56 AM 33.8 °F 27.0 °F 23.0 °F 65% 29.91 in 10.0 mi South 8.1 mph - N/A   Overcast
10:16 AM 33.8 °F 27.0 °F 23.0 °F 65% 29.91 in 10.0 mi South 8.1 mph - N/A   Overcast
10:36 AM 32.0 °F 27.5 °F 24.8 °F 75% 29.92 in 10.0 mi SW 4.6 mph - N/A   Mostly Cloudy
10:56 AM 33.8 °F 26.4 °F 24.8 °F 70% 29.92 in 1.0 mi SW 9.2 mph - N/A   Overcast
11:16 AM 33.8 °F 25.3 °F 24.8 °F 70% 29.93 in 3.0 mi SW 11.5 mph - N/A   Overcast
11:36 AM 33.8 °F 27.0 °F 24.8 °F 70% 29.93 in 10.0 mi SW 8.1 mph - N/A   Overcast
11:56 AM 33.8 °F 29.6 °F 24.8 °F 70% 29.94 in 8.0 mi South 4.6 mph - N/A   Overcast
12:16 PM 35.6 °F 31.7 °F 24.8 °F 65% 29.94 in 10.0 mi South 4.6 mph - N/A   Overcast
12:36 PM 35.6 °F 29.2 °F 23.0 °F 60% 29.95 in 8.0 mi SSW 8.1 mph - N/A   Overcast
12:56 PM 35.6 °F 28.6 °F 21.2 °F 56% 29.95 in 8.0 mi WSW 9.2 mph - N/A   Overcast
1:16 PM 35.6 °F 29.2 °F 21.2 °F 56% 29.95 in 2.5 mi SW 8.1 mph - N/A   Overcast
1:36 PM 35.6 °F 29.2 °F 23.0 °F 60% 29.95 in 7.0 mi SSW 8.1 mph - N/A   Overcast
1:56 PM 35.6 °F 30.7 °F 23.0 °F 60% 29.95 in 10.0 mi SSW 5.8 mph - N/A   Overcast
2:16 PM 35.6 °F 29.2 °F 21.2 °F 56% 29.96 in 8.0 mi SW 8.1 mph - N/A   Overcast
2:36 PM 35.6 °F - 23.0 °F 60% 29.96 in 8.0 mi Calm Calm - N/A   Overcast
2:56 PM 35.6 °F 31.7 °F 23.0 °F 60% 29.96 in 7.0 mi SW 4.6 mph - N/A   Overcast
3:16 PM 37.4 °F 30.8 °F 21.2 °F 52% 29.96 in 10.0 mi SSW 9.2 mph - N/A   Overcast
3:36 PM 37.4 °F 30.3 °F 21.2 °F 52% 29.96 in 8.0 mi SSW 10.4 mph - N/A   Overcast
3:56 PM 37.4 °F 30.8 °F 21.2 °F 52% 29.96 in 10.0 mi SSW 9.2 mph - N/A   Overcast
4:16 PM 37.4 °F 32.1 °F 21.2 °F 52% 29.96 in 10.0 mi SW 6.9 mph - N/A   Overcast
4:36 PM 37.4 °F 31.4 °F 21.2 °F 52% 29.96 in 9.0 mi WSW 8.1 mph - N/A   Overcast
4:56 PM 37.4 °F 32.1 °F 21.2 °F 52% 29.95 in 10.0 mi SW 6.9 mph - N/A   Overcast
5:16 PM 37.4 °F 31.4 °F 21.2 °F 52% 29.95 in 10.0 mi WSW 8.1 mph - N/A   Overcast
5:36 PM 37.4 °F 33.8 °F 21.2 °F 52% 29.95 in 10.0 mi WSW 4.6 mph - N/A   Overcast
5:56 PM 37.4 °F 34.9 °F 19.4 °F 48% 29.94 in 10.0 mi WSW 3.5 mph - N/A   Overcast
6:16 PM 37.4 °F 32.1 °F 23.0 °F 56% 29.95 in 10.0 mi WNW 6.9 mph - N/A   Overcast
6:36 PM 37.4 °F 32.1 °F 21.2 °F 52% 29.94 in 10.0 mi West 6.9 mph - N/A   Overcast
6:56 PM 37.4 °F 32.1 °F 21.2 °F 52% 29.94 in 10.0 mi West 6.9 mph - N/A   Overcast
7:16 PM 37.4 °F 32.1 °F 21.2 °F 52% 29.94 in 10.0 mi WNW 6.9 mph - N/A   Overcast
7:36 PM 35.6 °F 31.7 °F 21.2 °F 56% 29.94 in 10.0 mi WNW 4.6 mph - N/A   Overcast
7:56 PM 35.6 °F - 21.2 °F 56% 29.94 in 10.0 mi Calm Calm - N/A   Overcast
8:36 PM 35.6 °F - 21.2 °F 56% 29.94 in 10.0 mi Calm Calm - N/A   Mostly Cloudy
8:56 PM 35.6 °F - 24.8 °F 65% 29.94 in 10.0 mi Calm Calm - N/A   Mostly Cloudy
9:16 PM 33.8 °F - 24.8 °F 70% 29.94 in 10.0 mi Calm Calm - N/A   Clear
9:36 PM 32.0 °F - 24.8 °F 75% 29.94 in 10.0 mi Calm Calm - N/A   Clear
9:56 PM 33.8 °F 30.8 °F 23.0 °F 65% 29.94 in 10.0 mi West 3.5 mph - N/A   Clear
10:16 PM 28.4 °F - 23.0 °F 80% 29.94 in 10.0 mi Calm Calm - N/A   Clear
10:36 PM 28.4 °F 24.6 °F 23.0 °F 80% 29.94 in 10.0 mi ENE 3.5 mph - N/A   Clear
10:56 PM 28.4 °F - 21.2 °F 74% 29.94 in 10.0 mi Calm Calm - N/A   Clear
11:16 PM 28.4 °F - 23.0 °F 80% 29.93 in 10.0 mi Calm Calm - N/A   Clear
11:36 PM 28.4 °F 24.6 °F 23.0 °F 80% 29.94 in 10.0 mi SE 3.5 mph - N/A   Clear
11:56 PM 26.6 °F 21.2 °F 23.0 °F 86% 29.93 in 10.0 mi ESE 4.6 mph - N/A   Clear